This demonstration page uses our WeatherBlox Daily Observations layout. Learn more.

Left ArrowRight Arrow

34.02893, -84.19858

Hourly Observations for August 28, 2022

Temp ( °F °C ) Dew Point ( °F °C ) Humidity (%) Winds ( mph kmh ) Pressure ( in mb ) Visibility ( mi km ) Precip ( " mm )
12:06 am 00:06 Cloudy with Thunderstorms 73 22.8 70 21.1 90 90 VRB 5 7 29.99 1016 10 16 0.00 0.00
12:53 am 00:53 Mostly Cloudy with Thunderstorms 71 21.7 67 19.4 87 87 WNW 3 6 29.98 1015 10 16 0.01 0.13
1:10 am 01:10 Mostly Cloudy with Nearby Thunderstorms 70 21.1 68 20 93 93 WNW 3 6 29.99 1016 10 16 0.01 0.25
1:35 am 01:35 Mostly Cloudy 71 21.7 69 20.6 93 93 Calm 29.99 1016 10 16 0.01 0.25
1:53 am 01:53 Mostly Clear 70 21.1 69 20.6 97 97 ESE 3 6 29.96 1015 10 16 0.01 0.25
2:29 am 02:29 Mostly Cloudy 70 21.1 69 20.6 97 97 N 3 6 29.99 1016 10 16 0.00 0.00
2:38 am 02:38 Mostly Clear 70 21.1 69 20.6 97 97 Calm 29.98 1015 10 16 0.00 0.00
2:53 am 02:53 Clear 70 21.1 69 20.6 97 97 Calm 29.96 1015 10 16 0.00 0.00
3:53 am 03:53 Clear 70 21.1 68 20 93 93 Calm 29.95 1014 10 16 0.00 0.00
4:53 am 04:53 Clear 69 20.6 68 20 96 96 Calm 29.96 1015 10 16 0.00 0.00
5:53 am 05:53 Clear 69 20.6 68 20 96 96 NNE 3 6 29.96 1015 10 16 0.00 0.00
6:53 am 06:53 Clear 70 21.1 68 20 93 93 Calm 29.98 1015 10 16 0.00 0.00
7:53 am 07:53 Sunny 71 21.7 69 20.6 93 93 Calm 30.00 1016 10 16 0.00 0.00
8:53 am 08:53 Sunny 74 23.3 71 21.7 91 91 VRB 5 7 30.01 1016 10 16 0.00 0.00
9:53 am 09:53 Mostly Cloudy 76 24.4 72 22.2 88 88 VRB 3 6 30.03 1017 10 16 0.00 0.00
10:00 am 10:00 Mostly Sunny 79 26.1 73 22.8 82 82 Calm 30.03 1017 10 16 0.00 0.00
10:29 am 10:29 Mostly Cloudy 79 26.1 73 22.8 82 82 VRB 3 6 30.04 1017 10 16 0.00 0.00
10:48 am 10:48 Mostly Cloudy 79 26 73 23 84 84 VRB 3 6 30.04 1017 10 16 0.00 0.00
10:53 am 10:53 Mostly Cloudy 80 26.7 73 22.8 79 79 undefined N/A 30.04 1017 10 16 0.00 0.00
11:06 am 11:06 Partly Cloudy 81 27.2 73 22.8 77 77 VRB 3 6 30.04 1017 10 16 0.00 0.00
11:53 am 11:53 Mostly Sunny 83 28.3 72 22.2 70 70 VRB 5 7 30.03 1017 10 16 0.00 0.00
12:53 pm 12:53 Partly Cloudy 85 29.4 72 22.2 65 65 Calm 30.03 1017 10 16 0.00 0.00
1:53 pm 13:53 Partly Cloudy 87 30.6 70 21.1 57 57 VRB 6 9 30.01 1016 10 16 0.00 0.00
2:53 pm 14:53 Sunny 86 30 68 20 55 55 undefined N/A 29.99 1016 10 16 0.00 0.00
3:53 pm 15:53 Sunny 88 31.1 68 20 52 52 VRB 5 7 29.97 1015 10 16 0.00 0.00
4:53 pm 16:53 Mostly Sunny 87 30.6 69 20.6 55 55 undefined N/A 29.95 1014 10 16 0.00 0.00
5:53 pm 17:53 Partly Cloudy 87 30.6 69 20.6 55 55 VRB 3 6 29.95 1014 10 16 0.00 0.00
6:53 pm 18:53 Sunny 85 29.4 69 20.6 59 59 VRB 3 6 29.94 1014 10 16 0.00 0.00
7:53 pm 19:53 Sunny 82 27.8 69 20.6 65 65 SE 3 6 29.95 1014 10 16 0.00 0.00
8:53 pm 20:53 Clear 78 25.6 69 20.6 74 74 Calm 29.97 1015 10 16 0.00 0.00
9:53 pm 21:53 Clear 75 23.9 70 21.1 84 84 Calm 29.99 1016 10 16 0.00 0.00
10:53 pm 22:53 Clear 74 23.3 70 21.1 87 87 Calm 30.01 1016 10 16 0.00 0.00
11:53 pm 23:53 Clear 72 22.2 70 21.1 93 93 Calm 30.02 1017 10 16 0.00 0.00

Powered by AerisWeather